EZY25CU LEPA-EGKK

Flight info

Callsign EZY25CU
Flight time 1h 57m
Altitude 38000
Route DRAGO DCT PAPOS DCT UMURE DCT XIKEN DCT KARES DCT ARBEK DCT REBUL DCT USKAR DCT MOPAS DCT GIROM DCT GONUP DCT MANAK DCT TIRAV DCT DIXAD DCT NTS DCT BAKUL DCT REN DCT UPALO DCT REVTU DCT ODREP UP88 VASUX
Aircraft A319/M-SDE3FGHIRWY/LB1

Departure

Time 2026-05-07 14:30
Airport Palma de Mallorca Airport (LEPA)

Arrival

Time 2026-05-07 16:28
Airport London Gatwick Airport (EGKK)
Time Latitude Longitude Altitude Speed Heading
2026-05-07 14:16 39.55078 2.72833 38 ft 0 kts 181°
2026-05-07 14:18 39.55088 2.72833 36 ft 3 kts 181°
2026-05-07 14:19 39.55107 2.72834 38 ft 3 kts 177°
2026-05-07 14:19 39.55124 2.72829 37 ft 3 kts 125°
2026-05-07 14:19 39.55130 2.72807 37 ft 3 kts 83°
2026-05-07 14:19 39.55126 2.72781 38 ft 3 kts 69°
2026-05-07 14:20 39.55117 2.72758 35 ft 3 kts 58°
2026-05-07 14:20 39.55109 2.72741 35 ft 0 kts 59°
2026-05-07 14:23 39.55112 2.72746 36 ft 3 kts 59°
2026-05-07 14:23 39.55136 2.72798 38 ft 8 kts 59°
2026-05-07 14:23 39.55173 2.72878 36 ft 13 kts 59°
2026-05-07 14:23 39.55223 2.72983 38 ft 14 kts 58°
2026-05-07 14:24 39.55276 2.73091 38 ft 15 kts 57°
2026-05-07 14:24 39.55333 2.73213 38 ft 16 kts 58°
2026-05-07 14:24 39.55392 2.73337 37 ft 16 kts 59°
2026-05-07 14:24 39.55451 2.73462 38 ft 16 kts 58°
2026-05-07 14:25 39.55500 2.73569 38 ft 10 kts 62°
2026-05-07 14:25 39.55461 2.73625 38 ft 10 kts 149°
2026-05-07 14:25 39.55384 2.73687 38 ft 16 kts 149°
2026-05-07 14:25 39.55274 2.73772 38 ft 19 kts 148°
2026-05-07 14:26 39.55160 2.73863 38 ft 19 kts 148°
2026-05-07 14:26 39.55044 2.73954 38 ft 20 kts 149°
2026-05-07 14:26 39.54926 2.74047 38 ft 20 kts 149°
2026-05-07 14:26 39.54825 2.74123 38 ft 12 kts 159°
2026-05-07 14:27 39.54761 2.74066 38 ft 12 kts 240°
2026-05-07 14:27 39.54714 2.73967 38 ft 14 kts 238°
2026-05-07 14:27 39.54663 2.73862 38 ft 14 kts 238°
2026-05-07 14:27 39.54613 2.73755 38 ft 14 kts 239°
2026-05-07 14:28 39.54557 2.73636 38 ft 17 kts 238°
2026-05-07 14:28 39.54496 2.73506 37 ft 17 kts 238°
2026-05-07 14:28 39.54434 2.73375 38 ft 17 kts 238°
2026-05-07 14:28 39.54373 2.73247 38 ft 15 kts 239°
2026-05-07 14:29 39.54322 2.73164 38 ft 10 kts 205°
2026-05-07 14:29 39.54271 2.73210 38 ft 11 kts 107°
2026-05-07 14:29 39.54268 2.73321 38 ft 17 kts 90°
2026-05-07 14:29 39.54277 2.73484 37 ft 18 kts 69°
2026-05-07 14:30 39.54351 2.73650 38 ft 29 kts 59°
2026-05-07 14:30 39.54581 2.74127 38 ft 97 kts 58°
2026-05-07 14:30 39.55039 2.75104 47 ft 153 kts 59°
2026-05-07 14:30 39.55608 2.76278 683 ft 150 kts 58°
2026-05-07 14:31 39.56191 2.77385 1431 ft 151 kts 57°
2026-05-07 14:31 39.56853 2.78627 1729 ft 182 kts 58°
2026-05-07 14:31 39.57600 2.80097 2217 ft 201 kts 59°
2026-05-07 14:31 39.58363 2.81639 3044 ft 205 kts 59°
2026-05-07 14:32 39.59136 2.83209 3873 ft 209 kts 59°
2026-05-07 14:32 39.59919 2.84789 4667 ft 213 kts 59°
2026-05-07 14:32 39.60728 2.86417 5462 ft 217 kts 59°
2026-05-07 14:32 39.61551 2.88074 6291 ft 220 kts 59°
2026-05-07 14:33 39.62477 2.89756 6834 ft 239 kts 46°
2026-05-07 14:33 39.63974 2.90830 7185 ft 268 kts 13°
2026-05-07 14:33 39.65874 2.90584 7799 ft 286 kts 337°
2026-05-07 14:33 39.67421 2.88947 8614 ft 294 kts 305°
2026-05-07 14:34 39.68417 2.86621 9506 ft 297 kts 292°
2026-05-07 14:34 39.69164 2.84095 10199 ft 308 kts 288°
2026-05-07 14:34 39.69858 2.81361 10570 ft 328 kts 286°
2026-05-07 14:34 39.70574 2.78507 11258 ft 336 kts 287°
2026-05-07 14:35 39.71340 2.75621 12061 ft 340 kts 288°
2026-05-07 14:35 39.72160 2.72719 12884 ft 344 kts 289°
2026-05-07 14:35 39.73020 2.69805 13669 ft 348 kts 289°
2026-05-07 14:35 39.73910 2.66866 14375 ft 351 kts 289°
2026-05-07 14:36 39.74817 2.63904 15066 ft 354 kts 289°
2026-05-07 14:36 39.75742 2.60884 15759 ft 357 kts 289°
2026-05-07 14:36 39.76660 2.57873 16435 ft 360 kts 289°
2026-05-07 14:36 39.77581 2.54830 17102 ft 363 kts 289°
2026-05-07 14:37 39.78506 2.51755 17766 ft 367 kts 288°
2026-05-07 14:37 39.80377 2.45515 18986 ft 373 kts 288°
2026-05-07 14:37 39.81312 2.42400 19585 ft 375 kts 288°
2026-05-07 14:38 39.82262 2.39228 20205 ft 377 kts 288°
2026-05-07 14:38 39.83225 2.36003 20825 ft 379 kts 287°
2026-05-07 14:38 39.84179 2.32793 21437 ft 381 kts 287°
2026-05-07 14:38 39.85137 2.29565 22036 ft 383 kts 287°
2026-05-07 14:39 39.86089 2.26359 22633 ft 385 kts 287°
2026-05-07 14:39 39.87061 2.23099 23240 ft 387 kts 286°
2026-05-07 14:39 39.88038 2.19821 23782 ft 389 kts 286°
2026-05-07 14:39 39.89015 2.16528 24263 ft 391 kts 285°
2026-05-07 14:40 39.89996 2.13217 24739 ft 393 kts 285°
2026-05-07 14:40 39.90981 2.09889 25229 ft 395 kts 285°
2026-05-07 14:40 39.91969 2.06547 25682 ft 397 kts 284°
2026-05-07 14:40 39.92963 2.03183 26115 ft 399 kts 284°
2026-05-07 14:41 39.93961 1.99802 26560 ft 401 kts 284°
2026-05-07 14:41 39.94966 1.96401 26995 ft 403 kts 284°
2026-05-07 14:41 39.95973 1.92983 27416 ft 405 kts 284°
2026-05-07 14:41 39.96983 1.89542 27835 ft 407 kts 283°
2026-05-07 14:42 39.97998 1.86083 28250 ft 410 kts 283°
2026-05-07 14:42 39.99145 1.82646 28650 ft 419 kts 291°
2026-05-07 14:42 40.00780 1.79433 29047 ft 432 kts 302°
2026-05-07 14:42 40.02916 1.76591 29428 ft 446 kts 313°
2026-05-07 14:43 40.05522 1.74285 29794 ft 460 kts 326°
2026-05-07 14:43 40.08487 1.72601 30132 ft 470 kts 333°
2026-05-07 14:43 40.11543 1.71050 30430 ft 473 kts 333°
2026-05-07 14:43 40.14616 1.69487 30733 ft 475 kts 332°
2026-05-07 14:44 40.16702 1.68421 30929 ft 477 kts 332°
2026-05-07 14:44 40.19801 1.66831 31216 ft 480 kts 332°
2026-05-07 14:44 40.22913 1.65227 31531 ft 481 kts 332°
2026-05-07 14:44 40.26028 1.63620 31940 ft 481 kts 331°
2026-05-07 14:45 40.29140 1.62013 32346 ft 481 kts 331°
2026-05-07 14:45 40.32251 1.60405 32745 ft 481 kts 331°
2026-05-07 14:45 40.35360 1.58798 33139 ft 480 kts 330°
2026-05-07 14:45 40.38470 1.57188 33556 ft 480 kts 330°
2026-05-07 14:46 40.41576 1.55579 33965 ft 480 kts 330°
2026-05-07 14:46 40.44681 1.53970 34324 ft 479 kts 330°
2026-05-07 14:46 40.47779 1.52369 34702 ft 478 kts 330°
2026-05-07 14:46 40.50865 1.50776 35087 ft 475 kts 331°
2026-05-07 14:47 40.53928 1.49192 35476 ft 473 kts 331°
2026-05-07 14:47 40.56987 1.47604 35842 ft 470 kts 331°
2026-05-07 14:47 40.60016 1.46026 36205 ft 468 kts 331°
2026-05-07 14:47 40.63036 1.44449 36558 ft 466 kts 332°
2026-05-07 14:48 40.66042 1.42878 36888 ft 464 kts 332°
2026-05-07 14:48 40.69034 1.41311 37226 ft 462 kts 332°
2026-05-07 14:48 40.72012 1.39747 37539 ft 460 kts 332°
2026-05-07 14:48 40.74982 1.38189 37845 ft 459 kts 332°
2026-05-07 14:49 40.77946 1.36636 37960 ft 457 kts 332°
2026-05-07 14:49 40.80894 1.35094 37974 ft 455 kts 332°
2026-05-07 14:49 40.86771 1.32011 37968 ft 454 kts 332°
2026-05-07 14:50 40.92642 1.28916 37977 ft 454 kts 332°
2026-05-07 14:50 40.98518 1.25821 37972 ft 455 kts 332°
2026-05-07 14:51 41.04394 1.22716 37991 ft 455 kts 332°
2026-05-07 14:51 41.10275 1.19608 37978 ft 455 kts 332°
2026-05-07 14:52 41.16339 1.17072 37984 ft 464 kts 346°
2026-05-07 14:52 41.22818 1.16307 37992 ft 468 kts 351°
2026-05-07 14:53 41.29315 1.15635 37990 ft 468 kts 351°
2026-05-07 14:53 41.35811 1.14945 37990 ft 468 kts 351°
2026-05-07 14:54 41.42297 1.14252 37990 ft 468 kts 351°
2026-05-07 14:54 41.48792 1.13574 37985 ft 468 kts 351°
2026-05-07 14:55 41.55285 1.12889 37977 ft 468 kts 351°
2026-05-07 14:55 41.61772 1.12197 37972 ft 467 kts 351°
2026-05-07 14:56 41.68256 1.11510 37974 ft 467 kts 351°
2026-05-07 14:56 41.74737 1.10830 37973 ft 467 kts 351°
2026-05-07 14:57 41.81211 1.10148 37971 ft 466 kts 351°
2026-05-07 14:57 41.87677 1.09458 37974 ft 466 kts 351°
2026-05-07 14:58 41.94136 1.08767 37973 ft 465 kts 351°
2026-05-07 14:58 42.00581 1.08075 37972 ft 465 kts 351°
2026-05-07 14:59 42.07026 1.07377 37968 ft 464 kts 351°
2026-05-07 14:59 42.13461 1.06686 37971 ft 464 kts 351°
2026-05-07 15:00 42.19897 1.05994 37968 ft 464 kts 351°
2026-05-07 15:00 42.26321 1.05301 37965 ft 463 kts 351°
2026-05-07 15:01 42.32747 1.04606 37971 ft 463 kts 351°
2026-05-07 15:01 42.39170 1.03902 37971 ft 463 kts 351°
2026-05-07 15:02 42.45591 1.03204 37978 ft 463 kts 351°
2026-05-07 15:02 42.52012 1.02502 37981 ft 463 kts 351°
2026-05-07 15:03 42.58437 1.01806 37982 ft 463 kts 351°
2026-05-07 15:03 42.64862 1.01107 37995 ft 463 kts 352°
2026-05-07 15:04 42.71287 1.00403 37998 ft 463 kts 352°
2026-05-07 15:04 42.77688 0.99584 37999 ft 460 kts 345°
2026-05-07 15:05 42.83874 0.97536 38000 ft 457 kts 341°
2026-05-07 15:05 42.90034 0.95406 37995 ft 457 kts 341°
2026-05-07 15:06 42.96196 0.93284 37999 ft 457 kts 341°
2026-05-07 15:06 43.02362 0.91164 38006 ft 457 kts 342°
2026-05-07 15:07 43.08519 0.89031 38002 ft 456 kts 341°
2026-05-07 15:07 43.14663 0.86887 38001 ft 455 kts 341°
2026-05-07 15:08 43.20803 0.84742 37999 ft 455 kts 342°
2026-05-07 15:08 43.26939 0.82606 38000 ft 455 kts 342°
2026-05-07 15:09 43.33062 0.80460 38000 ft 454 kts 342°
2026-05-07 15:09 43.39182 0.78316 37996 ft 454 kts 342°
2026-05-07 15:10 43.45294 0.76156 37999 ft 452 kts 339°
2026-05-07 15:10 43.51089 0.72964 37999 ft 448 kts 333°
2026-05-07 15:11 43.56816 0.69582 37997 ft 448 kts 333°
2026-05-07 15:11 43.62545 0.66206 37994 ft 448 kts 333°
2026-05-07 15:12 43.68271 0.62826 38000 ft 447 kts 333°
2026-05-07 15:12 43.73995 0.59440 37996 ft 447 kts 333°
2026-05-07 15:13 43.79716 0.56047 38001 ft 447 kts 333°
2026-05-07 15:13 43.85426 0.52647 37999 ft 447 kts 333°
2026-05-07 15:14 43.91143 0.49242 37999 ft 447 kts 333°
2026-05-07 15:14 43.96857 0.45832 38001 ft 447 kts 333°
2026-05-07 15:15 44.02568 0.42416 37995 ft 447 kts 333°
2026-05-07 15:15 44.08273 0.38990 38000 ft 447 kts 333°
2026-05-07 15:16 44.13978 0.35564 38002 ft 446 kts 333°
2026-05-07 15:16 44.19682 0.32135 37999 ft 446 kts 333°
2026-05-07 15:17 44.25377 0.28694 37994 ft 446 kts 333°
2026-05-07 15:17 44.31073 0.25256 37996 ft 446 kts 333°
2026-05-07 15:18 44.36796 0.21787 37995 ft 446 kts 332°
2026-05-07 15:18 44.42485 0.18335 37993 ft 445 kts 332°
2026-05-07 15:19 44.48168 0.14874 37999 ft 445 kts 332°
2026-05-07 15:19 44.53849 0.11408 37993 ft 445 kts 332°
2026-05-07 15:20 44.59489 0.07960 37988 ft 445 kts 332°
2026-05-07 15:20 44.65164 0.04484 37990 ft 445 kts 332°
2026-05-07 15:21 44.70836 0.01006 37994 ft 445 kts 332°
2026-05-07 15:21 44.76506 -0.02479 38001 ft 445 kts 332°
2026-05-07 15:22 44.81250 -0.05399 37997 ft 444 kts 332°
2026-05-07 15:22 44.86913 -0.08898 37988 ft 444 kts 332°
2026-05-07 15:23 44.92572 -0.12406 37990 ft 444 kts 332°
2026-05-07 15:23 44.98233 -0.15908 37992 ft 444 kts 332°
2026-05-07 15:24 45.03886 -0.19428 37995 ft 444 kts 332°
2026-05-07 15:24 45.09539 -0.22947 37995 ft 444 kts 332°
2026-05-07 15:25 45.15188 -0.26471 37991 ft 444 kts 332°
2026-05-07 15:25 45.20829 -0.29994 37993 ft 443 kts 332°
2026-05-07 15:26 45.26472 -0.33529 37994 ft 443 kts 332°
2026-05-07 15:26 45.32112 -0.37072 37995 ft 443 kts 332°
2026-05-07 15:27 45.37749 -0.40620 37994 ft 443 kts 332°
2026-05-07 15:27 45.43381 -0.44180 37993 ft 443 kts 332°
2026-05-07 15:28 45.49014 -0.47744 37998 ft 443 kts 332°
2026-05-07 15:28 45.54645 -0.51310 37998 ft 443 kts 332°
2026-05-07 15:29 45.60272 -0.54883 37996 ft 442 kts 332°
2026-05-07 15:29 45.65889 -0.58460 37996 ft 442 kts 332°
2026-05-07 15:30 45.71510 -0.62045 37995 ft 442 kts 332°
2026-05-07 15:30 45.77128 -0.65640 37996 ft 442 kts 332°
2026-05-07 15:31 45.82746 -0.69236 37997 ft 442 kts 332°
2026-05-07 15:31 45.88361 -0.72842 37994 ft 442 kts 332°
2026-05-07 15:32 45.93973 -0.76461 37992 ft 442 kts 332°
2026-05-07 15:32 45.99586 -0.80079 38005 ft 442 kts 332°
2026-05-07 15:33 46.05197 -0.83708 37998 ft 442 kts 332°
2026-05-07 15:33 46.10807 -0.87344 37996 ft 442 kts 332°
2026-05-07 15:34 46.16410 -0.90984 37997 ft 442 kts 332°
2026-05-07 15:34 46.21884 -0.94949 37991 ft 437 kts 322°
2026-05-07 15:35 46.26642 -1.00334 37987 ft 434 kts 317°
2026-05-07 15:35 46.31361 -1.05795 37991 ft 434 kts 317°
2026-05-07 15:36 46.36082 -1.11259 37994 ft 434 kts 317°
2026-05-07 15:36 46.40796 -1.16732 37997 ft 434 kts 317°
2026-05-07 15:37 46.45508 -1.22222 38002 ft 434 kts 317°
2026-05-07 15:37 46.50223 -1.27734 38014 ft 434 kts 317°
2026-05-07 15:38 46.54919 -1.33244 38021 ft 434 kts 317°
2026-05-07 15:38 46.59673 -1.38678 38018 ft 437 kts 323°
2026-05-07 15:39 46.65060 -1.42744 38021 ft 440 kts 330°
2026-05-07 15:39 46.70582 -1.46629 38022 ft 440 kts 330°
2026-05-07 15:40 46.76086 -1.50540 38021 ft 440 kts 330°
2026-05-07 15:40 46.81587 -1.54463 37993 ft 440 kts 330°
2026-05-07 15:41 46.87245 -1.57899 37994 ft 444 kts 343°
2026-05-07 15:41 46.93409 -1.58972 38002 ft 449 kts 353°
2026-05-07 15:42 46.99638 -1.59594 37993 ft 448 kts 353°
2026-05-07 15:42 47.05861 -1.60245 37987 ft 448 kts 353°
2026-05-07 15:43 47.12089 -1.60891 37990 ft 449 kts 353°
2026-05-07 15:43 47.18318 -1.61542 37992 ft 449 kts 353°
2026-05-07 15:44 47.24535 -1.62348 37990 ft 448 kts 352°
2026-05-07 15:44 47.30743 -1.63242 37992 ft 448 kts 351°
2026-05-07 15:45 47.36952 -1.64111 37995 ft 448 kts 352°
2026-05-07 15:45 47.43162 -1.64981 37997 ft 448 kts 352°
2026-05-07 15:46 47.52508 -1.66328 37999 ft 448 kts 351°
2026-05-07 15:47 47.58715 -1.67217 37999 ft 448 kts 352°
2026-05-07 15:47 47.64921 -1.68091 37999 ft 448 kts 352°
2026-05-07 15:48 47.71081 -1.68977 38001 ft 448 kts 351°
2026-05-07 15:48 47.77279 -1.69882 38010 ft 447 kts 351°
2026-05-07 15:49 47.83516 -1.70781 38012 ft 447 kts 352°
2026-05-07 15:49 47.89709 -1.71666 38015 ft 447 kts 352°
2026-05-07 15:50 47.95857 -1.72552 38017 ft 447 kts 352°
2026-05-07 15:50 48.02078 -1.73457 38019 ft 447 kts 352°
2026-05-07 15:51 48.08274 -1.74190 38014 ft 448 kts 357°
2026-05-07 15:51 48.14509 -1.74265 38017 ft 448 kts 357°
2026-05-07 15:52 48.20744 -1.74334 38018 ft 448 kts 357°
2026-05-07 15:52 48.26978 -1.74399 38013 ft 448 kts 357°
2026-05-07 15:53 48.33208 -1.74472 38014 ft 448 kts 357°
2026-05-07 15:53 48.39436 -1.74557 38012 ft 447 kts 357°
2026-05-07 15:54 48.45660 -1.74638 38020 ft 447 kts 357°
2026-05-07 15:54 48.51883 -1.74711 38018 ft 447 kts 357°
2026-05-07 15:55 48.58105 -1.74779 38018 ft 447 kts 357°
2026-05-07 15:55 48.64320 -1.74857 38014 ft 447 kts 357°
2026-05-07 15:56 48.70540 -1.74943 38018 ft 447 kts 357°
2026-05-07 15:56 48.76759 -1.75018 38018 ft 447 kts 357°
2026-05-07 15:57 48.82981 -1.75092 38022 ft 447 kts 357°
2026-05-07 15:57 48.89191 -1.75167 38020 ft 447 kts 357°
2026-05-07 15:58 48.95409 -1.75145 38022 ft 447 kts 359°
2026-05-07 15:58 49.01627 -1.74869 38020 ft 447 kts 360°
2026-05-07 15:59 49.07843 -1.74550 38017 ft 447 kts 359°
2026-05-07 15:59 49.14057 -1.74286 38013 ft 447 kts 359°
2026-05-07 16:00 49.20270 -1.74060 38011 ft 446 kts 359°
2026-05-07 16:00 49.26482 -1.73842 38014 ft 447 kts 359°
2026-05-07 16:01 49.31643 -1.73650 38009 ft 447 kts 359°
2026-05-07 16:01 49.37860 -1.73408 38017 ft 447 kts 359°
2026-05-07 16:02 49.44107 -1.73155 37830 ft 457 kts 359°
2026-05-07 16:02 49.47311 -1.73033 37555 ft 463 kts 359°
2026-05-07 16:02 49.50527 -1.72912 37252 ft 460 kts 359°
2026-05-07 16:02 49.53714 -1.72794 36751 ft 456 kts 359°
2026-05-07 16:03 49.56876 -1.72664 36247 ft 453 kts
2026-05-07 16:03 49.59997 -1.72071 35741 ft 451 kts 11°
2026-05-07 16:03 49.63010 -1.70753 35250 ft 450 kts 19°
2026-05-07 16:03 49.65946 -1.69127 34735 ft 447 kts 18°
2026-05-07 16:04 49.68865 -1.67515 34224 ft 444 kts 18°
2026-05-07 16:04 49.71766 -1.65915 33675 ft 441 kts 18°
2026-05-07 16:04 49.74636 -1.64332 33189 ft 436 kts 18°
2026-05-07 16:04 49.77481 -1.62759 32705 ft 432 kts 18°
2026-05-07 16:05 49.80298 -1.61195 32218 ft 428 kts 18°
2026-05-07 16:05 49.83089 -1.59640 31731 ft 424 kts 18°
2026-05-07 16:05 49.85855 -1.58103 31278 ft 420 kts 18°
2026-05-07 16:05 49.88597 -1.56580 30814 ft 417 kts 18°
2026-05-07 16:06 49.91314 -1.55068 30376 ft 413 kts 18°
2026-05-07 16:06 49.94009 -1.53569 29909 ft 410 kts 18°
2026-05-07 16:06 49.96677 -1.52078 29483 ft 405 kts 19°
2026-05-07 16:06 49.99312 -1.50601 29060 ft 400 kts 19°
2026-05-07 16:07 50.01927 -1.49177 28658 ft 396 kts 17°
2026-05-07 16:07 50.04535 -1.47861 28264 ft 392 kts 16°
2026-05-07 16:07 50.07130 -1.46620 27872 ft 388 kts 15°
2026-05-07 16:07 50.09707 -1.45414 27466 ft 385 kts 15°
2026-05-07 16:08 50.12258 -1.44211 27064 ft 381 kts 15°
2026-05-07 16:08 50.14783 -1.42995 26649 ft 378 kts 16°
2026-05-07 16:08 50.17281 -1.41779 26235 ft 375 kts 16°
2026-05-07 16:08 50.18125 -1.41367 26104 ft 374 kts 16°
2026-05-07 16:09 50.19423 -1.40732 25854 ft 373 kts 16°
2026-05-07 16:09 50.21895 -1.39519 25447 ft 371 kts 16°
2026-05-07 16:09 50.24344 -1.38309 25028 ft 368 kts 16°
2026-05-07 16:09 50.26778 -1.37106 24590 ft 366 kts 16°
2026-05-07 16:10 50.29201 -1.35908 24148 ft 364 kts 16°
2026-05-07 16:10 50.31614 -1.34717 23709 ft 363 kts 16°
2026-05-07 16:10 50.34017 -1.33527 23224 ft 361 kts 16°
2026-05-07 16:10 50.36404 -1.32343 22766 ft 358 kts 16°
2026-05-07 16:11 50.38769 -1.31169 22366 ft 355 kts 16°
2026-05-07 16:11 50.41116 -1.30010 21953 ft 352 kts 16°
2026-05-07 16:11 50.43443 -1.28856 21546 ft 350 kts 16°
2026-05-07 16:11 50.45755 -1.27707 21140 ft 347 kts 16°
2026-05-07 16:12 50.48048 -1.26568 20735 ft 345 kts 17°
2026-05-07 16:12 50.50247 -1.25075 20341 ft 345 kts 28°
2026-05-07 16:12 50.52213 -1.22935 19938 ft 344 kts 39°
2026-05-07 16:12 50.54006 -1.20572 19547 ft 343 kts 39°
2026-05-07 16:13 50.55803 -1.18209 19158 ft 342 kts 39°
2026-05-07 16:13 50.57621 -1.15814 18765 ft 341 kts 39°
2026-05-07 16:13 50.59434 -1.13418 18376 ft 340 kts 39°
2026-05-07 16:13 50.61240 -1.11034 17946 ft 339 kts 39°
2026-05-07 16:14 50.63045 -1.08657 17560 ft 337 kts 39°
2026-05-07 16:14 50.64834 -1.06299 17180 ft 335 kts 39°
2026-05-07 16:14 50.66495 -1.03742 16809 ft 333 kts 50°
2026-05-07 16:14 50.67951 -1.00925 16434 ft 331 kts 51°
2026-05-07 16:15 50.69399 -0.98128 16123 ft 328 kts 51°
2026-05-07 16:15 50.70839 -0.95354 15796 ft 325 kts 51°
2026-05-07 16:15 50.72268 -0.92602 15460 ft 323 kts 51°
2026-05-07 16:15 50.73686 -0.89868 15129 ft 321 kts 51°
2026-05-07 16:16 50.75095 -0.87146 14796 ft 318 kts 51°
2026-05-07 16:16 50.76490 -0.84447 14361 ft 316 kts 51°
2026-05-07 16:16 50.77880 -0.81762 13942 ft 314 kts 51°
2026-05-07 16:16 50.79260 -0.79103 13479 ft 312 kts 51°
2026-05-07 16:17 50.80624 -0.76478 13212 ft 303 kts 51°
2026-05-07 16:17 50.81934 -0.73954 13075 ft 291 kts 51°
2026-05-07 16:17 50.83191 -0.71531 12933 ft 280 kts 51°
2026-05-07 16:17 50.84410 -0.69178 12647 ft 274 kts 51°
2026-05-07 16:18 50.85614 -0.66856 12292 ft 272 kts 51°
2026-05-07 16:18 50.86809 -0.64551 11893 ft 270 kts 51°
2026-05-07 16:18 50.87824 -0.62590 11495 ft 268 kts 51°
2026-05-07 16:18 50.88999 -0.60314 11039 ft 266 kts 51°
2026-05-07 16:19 50.90157 -0.58066 10586 ft 265 kts 51°
2026-05-07 16:19 50.91274 -0.55761 10106 ft 262 kts 62°
2026-05-07 16:19 50.91854 -0.53065 9605 ft 258 kts 79°
2026-05-07 16:19 50.92198 -0.50282 9083 ft 256 kts 81°
2026-05-07 16:20 50.92505 -0.47515 8589 ft 253 kts 81°
2026-05-07 16:20 50.92802 -0.44781 8102 ft 250 kts 78°
2026-05-07 16:20 50.93529 -0.42340 7597 ft 245 kts 47°
2026-05-07 16:20 50.94913 -0.40882 7104 ft 239 kts 15°
2026-05-07 16:21 50.96538 -0.40812 6603 ft 234 kts 343°
2026-05-07 16:21 50.98028 -0.41820 6073 ft 233 kts 332°
2026-05-07 16:21 50.99455 -0.43022 5539 ft 232 kts 331°
2026-05-07 16:21 51.00866 -0.44250 5076 ft 228 kts 331°
2026-05-07 16:22 51.02233 -0.45458 4699 ft 221 kts 331°
2026-05-07 16:22 51.03556 -0.46637 4395 ft 215 kts 331°
2026-05-07 16:22 51.04850 -0.47793 4121 ft 212 kts 331°
2026-05-07 16:22 51.06209 -0.48602 3914 ft 208 kts 357°
2026-05-07 16:23 51.07545 -0.48070 3782 ft 199 kts 34°
2026-05-07 16:23 51.08563 -0.46613 3693 ft 192 kts 39°
2026-05-07 16:23 51.09654 -0.45416 3615 ft 191 kts 32°
2026-05-07 16:23 51.10747 -0.44218 3379 ft 191 kts 44°
2026-05-07 16:24 51.11503 -0.42472 3063 ft 195 kts 69°
2026-05-07 16:24 51.11836 -0.40394 2827 ft 193 kts 77°
2026-05-07 16:24 51.12128 -0.38320 2525 ft 191 kts 78°
2026-05-07 16:24 51.12412 -0.36297 2260 ft 182 kts 78°
2026-05-07 16:25 51.12682 -0.34375 2023 ft 174 kts 78°
2026-05-07 16:25 51.12939 -0.32534 1791 ft 168 kts 78°
2026-05-07 16:25 51.13189 -0.30740 1557 ft 164 kts 78°
2026-05-07 16:25 51.13429 -0.29015 1347 ft 156 kts 78°
2026-05-07 16:26 51.13657 -0.27379 1127 ft 148 kts 78°
2026-05-07 16:26 51.13887 -0.25818 870 ft 143 kts 78°
2026-05-07 16:26 51.14098 -0.24311 701 ft 137 kts 81°
2026-05-07 16:26 51.14221 -0.23320 583 ft 134 kts 82°
2026-05-07 16:27 51.14491 -0.21403 324 ft 133 kts 81°
2026-05-07 16:27 51.14687 -0.19977 217 ft 126 kts 78°
2026-05-07 16:27 51.14845 -0.18810 212 ft 84 kts 77°
2026-05-07 16:27 51.14945 -0.18116 216 ft 53 kts 74°
2026-05-07 16:28 51.15067 -0.17785 207 ft 18 kts 45°
2026-05-07 16:28 51.15162 -0.17770 211 ft 13 kts 353°
2026-05-07 16:28 51.15220 -0.17782 205 ft 0 kts 352°
2026-05-07 16:28 51.15226 -0.17784 205 ft 2 kts 347°
2026-05-07 16:29 51.15249 -0.17825 208 ft 6 kts 285°
2026-05-07 16:29 51.15238 -0.17912 205 ft 10 kts 258°
2026-05-07 16:29 51.15222 -0.18026 205 ft 10 kts 257°
2026-05-07 16:29 51.15255 -0.18104 208 ft 10 kts 348°
2026-05-07 16:30 51.15325 -0.18127 205 ft 11 kts 347°
2026-05-07 16:30 51.15400 -0.18155 205 ft 11 kts 347°
2026-05-07 16:30 51.15479 -0.18189 213 ft 12 kts 346°
2026-05-07 16:30 51.15556 -0.18217 205 ft 11 kts 348°
2026-05-07 16:31 51.15607 -0.18233 216 ft 11 kts 349°
2026-05-07 16:31 51.15695 -0.18057 209 ft 6 kts 47°
2026-05-07 16:32 51.15769 -0.18057 205 ft 13 kts 347°
2026-05-07 16:32 51.15854 -0.18087 205 ft 11 kts 348°
2026-05-07 16:32 51.15919 -0.18100 205 ft 7 kts 26°
2026-05-07 16:32 51.15933 -0.18036 207 ft 5 kts 81°
2026-05-07 16:33 51.15938 -0.18002 214 ft 1 kts 77°
2026-05-07 16:33 51.15939 -0.17993 212 ft 0 kts 77°